Time,TemperatureF,DewpointF,PressureIn,WindDirection,WindDirectionDegrees,WindSpeedMPH,WindSpeedGustMPH,Humidity,HourlyPrecipIn,Conditions,Clouds,dailyrainin,SoftwareType,DateUTC
2013-07-13 00:00:00,57.9,42.8,29.38,NNE,22,0.0,0.0,57,0.00,CLR,,0.00,WeatherDisplay:10.37,2013-07-13 06:00:00,
2013-07-13 00:05:00,57.9,42.8,29.38,North,0,0.0,0.0,57,0.00,CLR,,0.00,WeatherDisplay:10.37,2013-07-13 06:05:00,
2013-07-13 00:10:00,57.9,42.8,29.38,ENE,68,0.0,0.0,57,0.00,CLR,,0.00,WeatherDisplay:10.37,2013-07-13 06:10:00,
2013-07-13 00:15:00,57.9,42.8,29.38,ENE,68,0.0,0.0,57,0.00,CLR,,0.00,WeatherDisplay:10.37,2013-07-13 06:15:00,
2013-07-13 00:20:00,57.9,42.8,29.38,SW,225,0.0,0.0,57,0.00,CLR,,0.00,WeatherDisplay:10.37,2013-07-13 06:20:00,
2013-07-13 00:25:00,57.9,42.8,29.38,NNE,22,0.0,0.0,57,0.00,CLR,,0.00,WeatherDisplay:10.37,2013-07-13 06:25:00,
2013-07-13 00:30:00,57.9,42.8,29.38,NNE,22,0.0,0.0,57,0.00,CLR,,0.00,WeatherDisplay:10.37,2013-07-13 06:30:00,
2013-07-13 00:35:00,57.9,42.8,29.38,NW,315,0.0,0.0,57,0.00,CLR,,0.00,WeatherDisplay:10.37,2013-07-13 06:35:00,
2013-07-13 00:40:00,57.9,42.8,29.39,ENE,68,0.0,0.0,57,0.00,CLR,,0.00,WeatherDisplay:10.37,2013-07-13 06:40:00,
2013-07-13 00:45:00,57.9,42.8,29.39,NW,315,2.3,2.3,57,0.00,CLR,,0.00,WeatherDisplay:10.37,2013-07-13 06:45:00,
2013-07-13 00:50:00,57.9,42.8,29.39,NNE,22,0.0,0.7,57,0.00,CLR,,0.00,WeatherDisplay:10.37,2013-07-13 06:50:00,
2013-07-13 00:55:00,57.9,42.8,29.39,ESE,112,1.2,1.2,57,0.00,CLR,,0.00,WeatherDisplay:10.37,2013-07-13 06:55:00,
2013-07-13 01:00:00,57.9,42.8,29.39,North,0,0.0,0.2,57,0.00,CLR,,0.00,WeatherDisplay:10.37,2013-07-13 07:00:00,
2013-07-13 01:05:00,57.9,42.8,29.39,NE,45,0.0,0.1,57,0.00,CLR,,0.00,WeatherDisplay:10.37,2013-07-13 07:05:00,
2013-07-13 01:10:00,57.9,42.8,29.39,NE,45,0.0,0.0,57,0.00,CLR,,0.00,WeatherDisplay:10.37,2013-07-13 07:10:00,
2013-07-13 01:15:00,57.9,42.8,29.39,NE,45,0.0,0.0,57,0.00,CLR,,0.00,WeatherDisplay:10.37,2013-07-13 07:15:00,
2013-07-13 01:20:00,57.9,42.8,29.39,East,90,0.0,0.0,57,0.00,CLR,,0.00,WeatherDisplay:10.37,2013-07-13 07:20:00,
2013-07-13 01:25:00,57.9,42.8,29.39,NE,45,0.0,0.0,57,0.00,CLR,,0.00,WeatherDisplay:10.37,2013-07-13 07:25:00,
2013-07-13 01:30:00,57.9,42.8,29.39,SSW,202,0.0,0.0,57,0.00,CLR,,0.00,WeatherDisplay:10.37,2013-07-13 07:30:00,
2013-07-13 01:35:00,57.9,42.8,29.39,North,0,0.0,0.0,57,0.00,CLR,,0.00,WeatherDisplay:10.37,2013-07-13 07:35:00,
2013-07-13 01:40:00,57.9,42.8,29.39,SSE,158,0.0,0.0,57,0.00,CLR,,0.00,WeatherDisplay:10.37,2013-07-13 07:40:00,
2013-07-13 01:45:00,57.9,42.8,29.39,NW,315,0.0,0.0,57,0.00,CLR,,0.00,WeatherDisplay:10.37,2013-07-13 07:45:00,
2013-07-13 01:50:00,57.9,42.8,29.39,ENE,68,0.0,0.0,57,0.00,CLR,,0.00,WeatherDisplay:10.37,2013-07-13 07:50:00,
2013-07-13 01:55:00,57.9,42.8,29.39,East,90,1.2,1.2,57,0.00,CLR,,0.00,WeatherDisplay:10.37,2013-07-13 07:55:00,
2013-07-13 02:00:00,57.9,42.8,29.40,NNW,338,0.0,0.7,57,0.00,CLR,,0.00,WeatherDisplay:10.37,2013-07-13 08:00:00,
2013-07-13 02:05:00,57.9,42.8,29.40,ESE,112,0.0,0.3,57,0.00,CLR,,0.00,WeatherDisplay:10.37,2013-07-13 08:05:00,
2013-07-13 02:10:00,57.9,42.8,29.40,North,0,0.0,0.3,57,0.00,CLR,,0.00,WeatherDisplay:10.37,2013-07-13 08:10:00,
2013-07-13 02:15:00,57.9,42.8,29.40,ESE,112,0.0,0.3,57,0.00,CLR,,0.00,WeatherDisplay:10.37,2013-07-13 08:15:00,
2013-07-13 02:20:00,57.9,42.8,29.39,NW,315,1.2,1.2,57,0.00,CLR,,0.00,WeatherDisplay:10.37,2013-07-13 08:20:00,
2013-07-13 02:25:00,57.9,42.8,29.39,East,90,0.0,0.5,57,0.00,CLR,,0.00,WeatherDisplay:10.37,2013-07-13 08:25:00,
2013-07-13 02:30:00,57.9,42.8,29.39,ENE,68,0.0,0.0,57,0.00,CLR,,0.00,WeatherDisplay:10.37,2013-07-13 08:30:00,
2013-07-13 02:35:00,57.9,42.8,29.39,ENE,68,0.0,0.0,57,0.00,CLR,,0.00,WeatherDisplay:10.37,2013-07-13 08:35:00,
2013-07-13 02:40:00,57.9,42.8,29.40,NNE,22,0.0,0.0,57,0.00,CLR,,0.00,WeatherDisplay:10.37,2013-07-13 08:40:00,
2013-07-13 02:45:00,57.9,42.8,29.40,North,0,0.0,0.0,57,0.00,CLR,,0.00,WeatherDisplay:10.37,2013-07-13 08:45:00,
2013-07-13 02:50:00,57.9,42.8,29.40,North,0,0.0,0.0,57,0.00,CLR,,0.00,WeatherDisplay:10.37,2013-07-13 08:50:00,
2013-07-13 02:55:00,57.9,42.8,29.40,ENE,68,0.0,0.0,57,0.00,CLR,,0.00,WeatherDisplay:10.37,2013-07-13 08:55:00,
2013-07-13 03:00:00,57.9,42.8,29.41,East,90,0.0,0.0,57,0.00,CLR,,0.00,WeatherDisplay:10.37,2013-07-13 09:00:00,
2013-07-13 03:05:00,57.9,42.8,29.41,East,90,0.0,0.0,57,0.00,CLR,,0.00,WeatherDisplay:10.37,2013-07-13 09:05:00,
2013-07-13 03:10:00,57.9,42.8,29.41,East,90,0.0,0.0,57,0.00,CLR,,0.00,WeatherDisplay:10.37,2013-07-13 09:10:00,
2013-07-13 03:15:00,57.9,42.8,29.41,NE,45,0.0,0.0,57,0.00,CLR,,0.00,WeatherDisplay:10.37,2013-07-13 09:15:00,
2013-07-13 03:20:00,57.9,42.8,29.41,NNE,22,0.0,0.0,57,0.00,CLR,,0.00,WeatherDisplay:10.37,2013-07-13 09:20:00,
2013-07-13 03:25:00,57.9,42.8,29.41,NE,45,0.0,0.0,57,0.00,CLR,,0.00,WeatherDisplay:10.37,2013-07-13 09:25:00,
2013-07-13 03:30:00,57.9,42.8,29.41,SSW,202,0.0,0.0,57,0.00,CLR,,0.00,WeatherDisplay:10.37,2013-07-13 09:30:00,
2013-07-13 03:35:00,57.9,42.8,29.41,SE,135,0.0,0.0,57,0.00,CLR,,0.00,WeatherDisplay:10.37,2013-07-13 09:35:00,
2013-07-13 03:40:00,57.9,42.8,29.41,SSE,158,0.0,0.0,57,0.00,CLR,,0.00,WeatherDisplay:10.37,2013-07-13 09:40:00,
2013-07-13 03:45:00,57.9,42.8,29.41,NE,45,0.0,0.0,57,0.00,CLR,,0.00,WeatherDisplay:10.37,2013-07-13 09:45:00,
2013-07-13 03:50:00,57.9,42.8,29.41,NE,45,0.0,0.0,57,0.00,CLR,,0.00,WeatherDisplay:10.37,2013-07-13 09:50:00,
2013-07-13 03:55:00,57.9,42.8,29.41,North,0,0.0,0.0,57,0.00,CLR,,0.00,WeatherDisplay:10.37,2013-07-13 09:55:00,
2013-07-13 04:00:00,57.9,42.8,29.42,NNE,22,0.0,0.0,57,0.00,CLR,,0.00,WeatherDisplay:10.37,2013-07-13 10:00:00,
2013-07-13 04:05:00,57.9,42.8,29.42,NE,45,0.0,0.0,57,0.00,CLR,,0.00,WeatherDisplay:10.37,2013-07-13 10:05:00,
2013-07-13 04:10:00,57.9,42.8,29.42,North,0,0.0,0.0,57,0.00,CLR,,0.00,WeatherDisplay:10.37,2013-07-13 10:10:00,
2013-07-13 04:15:00,57.9,42.8,29.42,ENE,68,0.0,0.0,57,0.00,CLR,,0.00,WeatherDisplay:10.37,2013-07-13 10:15:00,
2013-07-13 04:20:00,57.9,42.8,29.42,East,90,0.0,0.0,57,0.00,CLR,,0.00,WeatherDisplay:10.37,2013-07-13 10:20:00,
2013-07-13 04:25:00,57.9,42.8,29.42,East,90,0.0,0.0,57,0.00,CLR,,0.00,WeatherDisplay:10.37,2013-07-13 10:25:00,
2013-07-13 04:30:00,57.9,42.8,29.42,North,0,0.0,0.0,57,0.00,CLR,,0.00,WeatherDisplay:10.37,2013-07-13 10:30:00,
2013-07-13 04:35:00,57.9,42.8,29.42,North,0,0.0,0.0,57,0.00,CLR,,0.00,WeatherDisplay:10.37,2013-07-13 10:35:00,
2013-07-13 04:40:00,57.9,42.8,29.43,NE,45,0.0,0.0,57,0.00,CLR,,0.00,WeatherDisplay:10.37,2013-07-13 10:40:00,
2013-07-13 04:45:00,57.9,42.8,29.43,North,0,0.0,0.0,57,0.00,CLR,,0.00,WeatherDisplay:10.37,2013-07-13 10:45:00,
2013-07-13 04:50:00,57.9,42.8,29.43,SSW,202,0.0,0.0,57,0.00,CLR,,0.00,WeatherDisplay:10.37,2013-07-13 10:50:00,
2013-07-13 04:55:00,57.9,42.8,29.43,ENE,68,0.0,0.0,57,0.00,CLR,,0.00,WeatherDisplay:10.37,2013-07-13 10:55:00,
2013-07-13 05:00:00,57.9,42.8,29.44,NW,315,0.0,0.0,57,0.00,CLR,,0.00,WeatherDisplay:10.37,2013-07-13 11:00:00,
2013-07-13 05:05:00,57.9,42.8,29.44,East,90,0.0,0.0,57,0.00,CLR,,0.00,WeatherDisplay:10.37,2013-07-13 11:05:00,
2013-07-13 05:10:00,57.9,42.8,29.44,ENE,68,0.0,0.0,57,0.00,CLR,,0.00,WeatherDisplay:10.37,2013-07-13 11:10:00,
2013-07-13 05:15:00,57.9,42.8,29.44,ENE,68,0.0,0.0,57,0.00,CLR,,0.00,WeatherDisplay:10.37,2013-07-13 11:15:00,
2013-07-13 05:20:00,57.9,42.8,29.45,NE,45,0.0,0.0,57,0.00,CLR,,0.00,WeatherDisplay:10.37,2013-07-13 11:20:00,
2013-07-13 05:25:00,57.9,42.8,29.45,North,0,0.0,0.0,57,0.00,CLR,,0.00,WeatherDisplay:10.37,2013-07-13 11:25:00,
2013-07-13 05:30:00,57.9,42.8,29.45,North,0,0.0,0.0,57,0.00,CLR,,0.00,WeatherDisplay:10.37,2013-07-13 11:30:00,
2013-07-13 05:35:00,57.9,42.8,29.45,North,0,0.0,0.0,57,0.00,CLR,,0.00,WeatherDisplay:10.37,2013-07-13 11:35:00,
2013-07-13 05:40:00,57.9,42.8,29.46,East,90,0.0,0.0,57,0.00,CLR,,0.00,WeatherDisplay:10.37,2013-07-13 11:40:00,
2013-07-13 05:45:00,57.9,42.8,29.46,South,180,0.0,0.0,57,0.00,CLR,,0.00,WeatherDisplay:10.37,2013-07-13 11:45:00,
2013-07-13 05:50:00,57.9,42.8,29.46,East,90,0.0,0.0,57,0.00,CLR,,0.00,WeatherDisplay:10.37,2013-07-13 11:50:00,
2013-07-13 05:55:00,57.9,42.8,29.46,ESE,112,0.0,0.0,57,0.00,CLR,,0.00,WeatherDisplay:10.37,2013-07-13 11:55:00,
2013-07-13 06:00:00,57.9,42.8,29.45,NE,45,0.0,0.0,57,0.00,CLR,,0.00,WeatherDisplay:10.37,2013-07-13 12:00:00,
2013-07-13 06:05:00,57.9,42.8,29.45,West,270,0.0,0.0,57,0.00,CLR,,0.00,WeatherDisplay:10.37,2013-07-13 12:05:00,
2013-07-13 06:10:00,57.9,42.8,29.45,West,270,0.0,0.0,57,0.00,CLR,,0.00,WeatherDisplay:10.37,2013-07-13 12:10:00,
2013-07-13 06:15:00,57.9,42.8,29.45,ENE,68,0.0,0.0,57,0.00,CLR,,0.00,WeatherDisplay:10.37,2013-07-13 12:15:00,
2013-07-13 06:20:00,57.9,42.8,29.47,SSE,158,0.0,0.0,57,0.00,CLR,,0.00,WeatherDisplay:10.37,2013-07-13 12:20:00,
2013-07-13 06:25:00,57.9,42.8,29.47,NNE,22,0.0,0.0,57,0.00,CLR,,0.00,WeatherDisplay:10.37,2013-07-13 12:25:00,
2013-07-13 06:30:00,57.9,42.8,29.47,South,180,0.0,0.0,57,0.00,CLR,,0.00,WeatherDisplay:10.37,2013-07-13 12:30:00,
2013-07-13 06:35:00,57.9,42.8,29.47,WSW,248,0.0,0.0,57,0.00,CLR,,0.00,WeatherDisplay:10.37,2013-07-13 12:35:00,
2013-07-13 06:40:00,57.9,42.8,29.47,NE,45,0.0,0.0,57,0.00,CLR,,0.00,WeatherDisplay:10.37,2013-07-13 12:40:00,
2013-07-13 06:45:00,57.9,42.8,29.47,NE,45,0.0,0.0,57,0.00,CLR,,0.00,WeatherDisplay:10.37,2013-07-13 12:45:00,
2013-07-13 06:50:00,57.9,42.8,29.47,ENE,68,0.0,0.0,57,0.00,CLR,,0.00,WeatherDisplay:10.37,2013-07-13 12:50:00,
2013-07-13 06:55:00,57.9,42.8,29.47,East,90,0.0,0.0,57,0.00,CLR,,0.00,WeatherDisplay:10.37,2013-07-13 12:55:00,
2013-07-13 07:00:00,57.9,42.8,29.47,East,90,0.0,0.0,57,0.00,CLR,,0.00,WeatherDisplay:10.37,2013-07-13 13:00:00,
2013-07-13 07:05:00,57.9,42.8,29.47,ENE,68,0.0,0.0,57,0.00,CLR,,0.00,WeatherDisplay:10.37,2013-07-13 13:05:00,
2013-07-13 07:10:00,57.9,42.8,29.47,North,0,0.0,0.0,57,0.00,CLR,,0.00,WeatherDisplay:10.37,2013-07-13 13:10:00,
2013-07-13 07:15:00,57.9,42.8,29.47,NW,315,0.0,0.0,57,0.00,CLR,,0.00,WeatherDisplay:10.37,2013-07-13 13:15:00,
2013-07-13 07:20:00,57.9,42.8,29.47,North,0,0.0,0.0,57,0.00,CLR,,0.00,WeatherDisplay:10.37,2013-07-13 13:20:00,
2013-07-13 07:25:00,57.9,42.8,29.47,NW,315,0.0,0.0,57,0.00,CLR,,0.00,WeatherDisplay:10.37,2013-07-13 13:25:00,
2013-07-13 07:30:00,57.9,42.8,29.47,North,0,0.0,0.0,57,0.00,CLR,,0.00,WeatherDisplay:10.37,2013-07-13 13:30:00,
2013-07-13 07:35:00,57.9,42.8,29.47,WSW,248,0.0,0.0,57,0.00,CLR,,0.00,WeatherDisplay:10.37,2013-07-13 13:35:00,
2013-07-13 07:40:00,57.9,42.8,29.47,WSW,248,0.0,0.0,57,0.00,CLR,,0.00,WeatherDisplay:10.37,2013-07-13 13:40:00,
2013-07-13 07:45:00,57.9,42.8,29.47,NW,315,0.0,0.0,57,0.00,CLR,,0.00,WeatherDisplay:10.37,2013-07-13 13:45:00,
2013-07-13 07:50:00,57.9,42.8,29.47,North,0,0.0,0.0,57,0.00,CLR,,0.00,WeatherDisplay:10.37,2013-07-13 13:50:00,
2013-07-13 07:55:00,57.9,42.8,29.47,SW,225,0.0,0.0,57,0.00,CLR,,0.00,WeatherDisplay:10.37,2013-07-13 13:55:00,
2013-07-13 08:00:00,57.9,42.8,29.48,NNW,338,0.0,0.0,57,0.00,CLR,,0.00,WeatherDisplay:10.37,2013-07-13 14:00:00,
2013-07-13 08:05:00,57.9,42.8,29.48,North,0,0.0,0.0,57,0.00,CLR,,0.00,WeatherDisplay:10.37,2013-07-13 14:05:00,
2013-07-13 08:10:00,57.9,42.8,29.48,SW,225,0.0,0.0,57,0.00,CLR,,0.00,WeatherDisplay:10.37,2013-07-13 14:10:00,
2013-07-13 08:15:00,57.9,42.8,29.48,West,270,0.0,0.0,57,0.00,CLR,,0.00,WeatherDisplay:10.37,2013-07-13 14:15:00,
2013-07-13 08:20:00,57.9,42.8,29.48,NW,315,0.0,0.0,57,0.00,CLR,,0.00,WeatherDisplay:10.37,2013-07-13 14:20:00,
2013-07-13 08:25:00,57.9,42.8,29.48,WNW,292,0.0,0.0,57,0.00,CLR,,0.00,WeatherDisplay:10.37,2013-07-13 14:25:00,
2013-07-13 08:30:00,57.9,42.8,29.48,WNW,292,0.0,0.0,57,0.00,CLR,,0.00,WeatherDisplay:10.37,2013-07-13 14:30:00,
2013-07-13 08:35:00,57.9,42.8,29.48,WNW,292,0.0,0.0,57,0.00,CLR,,0.00,WeatherDisplay:10.37,2013-07-13 14:35:00,
2013-07-13 08:40:00,57.9,42.8,29.48,SW,225,0.0,0.0,57,0.00,CLR,,0.00,WeatherDisplay:10.37,2013-07-13 14:40:00,
2013-07-13 08:45:00,57.9,42.8,29.48,SW,225,0.0,0.0,57,0.00,CLR,,0.00,WeatherDisplay:10.37,2013-07-13 14:45:00,
2013-07-13 08:50:00,57.9,42.8,29.48,WSW,248,0.0,0.0,57,0.00,CLR,,0.00,WeatherDisplay:10.37,2013-07-13 14:50:00,
2013-07-13 08:55:00,57.9,42.8,29.48,WNW,292,0.0,0.0,57,0.00,CLR,,0.00,WeatherDisplay:10.37,2013-07-13 14:55:00,
2013-07-13 09:00:00,57.9,42.8,29.54,WSW,248,0.0,0.0,57,0.00,CLR,,0.00,WeatherDisplay:10.37,2013-07-13 15:00:00,
2013-07-13 09:05:00,57.9,42.8,29.54,WNW,292,0.0,0.0,57,0.00,CLR,,0.00,WeatherDisplay:10.37,2013-07-13 15:05:00,
2013-07-13 09:10:00,57.9,42.8,29.54,NW,315,0.0,0.0,57,0.00,CLR,,0.00,WeatherDisplay:10.37,2013-07-13 15:10:00,
2013-07-13 09:15:00,57.9,42.8,29.54,NW,315,0.0,0.0,57,0.00,CLR,,0.00,WeatherDisplay:10.37,2013-07-13 15:15:00,
2013-07-13 09:20:00,57.9,42.8,29.55,WNW,292,0.0,0.2,57,0.00,CLR,,0.00,WeatherDisplay:10.37,2013-07-13 15:20:00,
2013-07-13 09:25:00,57.9,42.8,29.55,WNW,292,0.0,0.2,57,0.00,CLR,,0.00,WeatherDisplay:10.37,2013-07-13 15:25:00,
2013-07-13 09:30:00,57.9,42.8,29.55,WSW,248,0.0,0.0,57,0.00,CLR,,0.00,WeatherDisplay:10.37,2013-07-13 15:30:00,
2013-07-13 09:35:00,57.9,42.8,29.55,NE,45,0.0,0.0,57,0.00,CLR,,0.00,WeatherDisplay:10.37,2013-07-13 15:35:00,
2013-07-13 09:40:00,57.9,42.8,29.56,WSW,248,0.0,0.3,57,0.00,CLR,,0.00,WeatherDisplay:10.37,2013-07-13 15:40:00,
2013-07-13 09:45:00,57.9,42.8,29.56,ESE,112,2.3,2.3,57,0.00,CLR,,0.00,WeatherDisplay:10.37,2013-07-13 15:45:00,
2013-07-13 09:50:00,57.9,42.8,29.56,SSW,202,0.0,0.3,57,0.00,CLR,,0.00,WeatherDisplay:10.37,2013-07-13 15:50:00,
2013-07-13 09:55:00,57.9,42.8,29.56,West,270,0.0,0.0,57,0.00,CLR,,0.00,WeatherDisplay:10.37,2013-07-13 15:55:00,
2013-07-13 10:00:00,57.9,42.8,29.55,SSW,202,0.0,0.0,57,0.00,CLR,,0.00,WeatherDisplay:10.37,2013-07-13 16:00:00,
2013-07-13 10:05:00,57.9,42.8,29.55,WSW,248,0.0,0.0,57,0.00,CLR,,0.00,WeatherDisplay:10.37,2013-07-13 16:05:00,
2013-07-13 10:10:00,57.9,42.8,29.55,WNW,292,0.0,0.0,57,0.00,CLR,,0.00,WeatherDisplay:10.37,2013-07-13 16:10:00,
2013-07-13 10:15:00,57.9,42.8,29.55,North,0,0.0,0.0,57,0.00,CLR,,0.00,WeatherDisplay:10.37,2013-07-13 16:15:00,
2013-07-13 10:20:00,57.9,42.8,29.56,SW,225,2.3,2.3,57,0.00,CLR,,0.00,WeatherDisplay:10.37,2013-07-13 16:20:00,
2013-07-13 10:25:00,57.9,42.8,29.56,SSE,158,4.6,4.6,57,0.00,CLR,,0.00,WeatherDisplay:10.37,2013-07-13 16:25:00,
2013-07-13 10:30:00,57.9,42.8,29.56,WSW,248,0.0,1.0,57,0.00,CLR,,0.00,WeatherDisplay:10.37,2013-07-13 16:30:00,
2013-07-13 10:35:00,57.9,42.8,29.56,SSW,202,0.0,0.6,57,0.00,CLR,,0.00,WeatherDisplay:10.37,2013-07-13 16:35:00,
2013-07-13 10:40:00,57.9,42.8,29.56,SW,225,2.3,2.3,57,0.00,CLR,,0.00,WeatherDisplay:10.37,2013-07-13 16:40:00,
2013-07-13 10:45:00,57.9,42.8,29.56,NW,315,6.9,6.9,57,0.00,CLR,,0.00,WeatherDisplay:10.37,2013-07-13 16:45:00,
2013-07-13 10:50:00,57.9,42.8,29.56,SE,135,5.8,5.8,57,0.00,CLR,,0.00,WeatherDisplay:10.37,2013-07-13 16:50:00,
2013-07-13 10:55:00,57.9,42.8,29.56,WNW,292,2.3,2.3,57,0.00,CLR,,0.00,WeatherDisplay:10.37,2013-07-13 16:55:00,
2013-07-13 11:00:00,57.9,42.8,29.55,SW,225,0.0,1.4,57,0.00,CLR,,0.00,WeatherDisplay:10.37,2013-07-13 17:00:00,
2013-07-13 11:05:00,57.9,42.8,29.55,WSW,248,0.0,0.0,57,0.00,CLR,,0.00,WeatherDisplay:10.37,2013-07-13 17:05:00,
2013-07-13 11:10:00,57.9,42.8,29.55,West,270,0.0,0.0,57,0.00,CLR,,0.00,WeatherDisplay:10.37,2013-07-13 17:10:00,
2013-07-13 11:15:00,57.9,42.8,29.55,West,270,2.3,2.3,57,0.00,CLR,,0.00,WeatherDisplay:10.37,2013-07-13 17:15:00,
2013-07-13 11:21:00,57.9,42.8,29.55,SW,225,1.2,1.2,57,0.00,CLR,,0.00,WeatherDisplay:10.37,2013-07-13 17:21:00,
2013-07-13 11:26:00,57.9,42.8,29.55,WSW,248,0.0,0.0,57,0.00,CLR,,0.00,WeatherDisplay:10.37,2013-07-13 17:26:00,
2013-07-13 11:31:00,57.9,42.8,29.55,WSW,248,0.0,0.0,57,0.00,CLR,,0.00,WeatherDisplay:10.37,2013-07-13 17:31:00,
2013-07-13 11:36:00,57.9,42.8,29.55,WSW,248,0.0,0.0,57,0.00,CLR,,0.00,WeatherDisplay:10.37,2013-07-13 17:36:00,
2013-07-13 11:41:00,57.9,42.8,29.55,WSW,248,0.0,0.6,57,0.00,CLR,,0.00,WeatherDisplay:10.37,2013-07-13 17:41:00,
2013-07-13 11:46:00,57.9,42.8,29.55,SW,225,2.3,2.3,57,0.00,CLR,,0.00,WeatherDisplay:10.37,2013-07-13 17:46:00,
2013-07-13 11:51:00,57.9,42.8,29.55,SW,225,5.8,5.8,57,0.00,CLR,,0.00,WeatherDisplay:10.37,2013-07-13 17:51:00,
2013-07-13 11:56:00,57.9,42.8,29.55,SSW,202,2.3,2.3,57,0.00,CLR,,0.00,WeatherDisplay:10.37,2013-07-13 17:56:00,
2013-07-13 12:01:00,57.9,42.8,29.55,SSW,202,3.5,3.5,57,0.00,CLR,,0.00,WeatherDisplay:10.37,2013-07-13 18:01:00,
2013-07-13 12:06:00,57.9,42.8,29.55,SSW,202,6.9,6.9,57,0.00,CLR,,0.00,WeatherDisplay:10.37,2013-07-13 18:06:00,
2013-07-13 12:11:00,57.9,42.8,29.55,SSW,202,6.9,6.9,57,0.00,CLR,,0.00,WeatherDisplay:10.37,2013-07-13 18:11:00,
2013-07-13 12:16:00,57.9,42.8,29.55,WSW,248,5.8,5.8,57,0.00,CLR,,0.00,WeatherDisplay:10.37,2013-07-13 18:16:00,
2013-07-13 12:21:00,57.9,42.8,29.55,SSW,202,0.0,1.2,57,0.00,CLR,,0.00,WeatherDisplay:10.37,2013-07-13 18:21:00,
2013-07-13 12:26:00,57.9,42.8,29.55,WNW,292,2.3,2.3,57,0.00,CLR,,0.00,WeatherDisplay:10.37,2013-07-13 18:26:00,
2013-07-13 12:31:00,57.9,42.8,29.55,ENE,68,2.3,2.3,57,0.00,CLR,,0.00,WeatherDisplay:10.37,2013-07-13 18:31:00,
2013-07-13 12:36:00,57.9,42.8,29.55,WSW,248,3.5,3.5,57,0.00,CLR,,0.00,WeatherDisplay:10.37,2013-07-13 18:36:00,
2013-07-13 12:41:00,57.9,42.8,29.55,WSW,248,0.0,0.6,57,0.00,CLR,,0.00,WeatherDisplay:10.37,2013-07-13 18:41:00,
2013-07-13 12:46:00,57.9,42.8,29.55,SW,225,0.0,0.0,57,0.00,CLR,,0.00,WeatherDisplay:10.37,2013-07-13 18:46:00,
2013-07-13 12:51:00,57.9,42.8,29.55,SSE,158,5.8,5.8,57,0.00,CLR,,0.00,WeatherDisplay:10.37,2013-07-13 18:51:00,
2013-07-13 12:56:00,57.9,42.8,29.55,WSW,248,2.3,2.3,57,0.00,CLR,,0.00,WeatherDisplay:10.37,2013-07-13 18:56:00,
2013-07-13 13:01:00,57.9,42.8,29.55,SSE,158,1.2,1.2,57,0.00,CLR,,0.00,WeatherDisplay:10.37,2013-07-13 19:01:00,
2013-07-13 13:06:00,57.9,42.8,29.55,WSW,248,4.6,4.6,57,0.00,CLR,,0.00,WeatherDisplay:10.37,2013-07-13 19:06:00,
2013-07-13 13:11:00,57.9,42.8,29.55,WSW,248,1.2,1.2,57,0.00,CLR,,0.00,WeatherDisplay:10.37,2013-07-13 19:11:00,
2013-07-13 13:16:00,57.9,42.8,29.55,SW,225,6.9,6.9,57,0.00,CLR,,0.00,WeatherDisplay:10.37,2013-07-13 19:16:00,
2013-07-13 13:21:00,57.9,42.8,29.55,SW,225,0.0,1.2,57,0.00,CLR,,0.00,WeatherDisplay:10.37,2013-07-13 19:21:00,
2013-07-13 13:26:00,57.9,42.8,29.55,ENE,68,2.3,2.3,57,0.00,CLR,,0.00,WeatherDisplay:10.37,2013-07-13 19:26:00,
2013-07-13 13:31:00,57.9,42.8,29.55,SW,225,5.8,5.8,57,0.00,CLR,,0.00,WeatherDisplay:10.37,2013-07-13 19:31:00,
2013-07-13 13:36:00,57.9,42.8,29.55,SSE,158,3.5,3.5,57,0.00,CLR,,0.00,WeatherDisplay:10.37,2013-07-13 19:36:00,
2013-07-13 13:41:00,57.9,42.8,29.54,SW,225,3.5,3.5,57,0.00,CLR,,0.00,WeatherDisplay:10.37,2013-07-13 19:41:00,
2013-07-13 13:46:00,57.9,42.8,29.54,East,90,3.5,3.5,57,0.00,CLR,,0.00,WeatherDisplay:10.37,2013-07-13 19:46:00,
2013-07-13 13:51:00,57.9,42.8,29.54,ENE,68,1.2,1.7,57,0.00,CLR,,0.00,WeatherDisplay:10.37,2013-07-13 19:51:00,
2013-07-13 13:56:00,57.9,42.8,29.54,SSW,202,2.3,2.3,57,0.00,CLR,,0.00,WeatherDisplay:10.37,2013-07-13 19:56:00,
2013-07-13 14:01:00,57.9,42.8,29.54,SE,135,6.9,6.9,57,0.00,CLR,,0.00,WeatherDisplay:10.37,2013-07-13 20:01:00,
2013-07-13 14:06:00,57.9,42.8,29.54,ENE,68,1.2,2.0,57,0.00,CLR,,0.00,WeatherDisplay:10.37,2013-07-13 20:06:00,
2013-07-13 14:11:00,57.9,42.8,29.54,WSW,248,4.6,4.6,57,0.00,CLR,,0.00,WeatherDisplay:10.37,2013-07-13 20:11:00,
2013-07-13 14:16:00,57.9,42.8,29.54,WSW,248,4.6,4.6,57,0.00,CLR,,0.00,WeatherDisplay:10.37,2013-07-13 20:16:00,
2013-07-13 14:21:00,57.9,42.8,29.53,West,270,5.8,5.8,57,0.00,CLR,,0.00,WeatherDisplay:10.37,2013-07-13 20:21:00,
2013-07-13 14:26:00,57.9,42.8,29.53,SW,225,2.3,2.6,57,0.00,CLR,,0.00,WeatherDisplay:10.37,2013-07-13 20:26:00,
2013-07-13 14:31:00,57.9,42.8,29.53,SW,225,2.9,2.9,57,0.00,CLR,,0.00,WeatherDisplay:10.37,2013-07-13 20:31:00,
2013-07-13 14:37:00,57.9,42.8,29.53,SSW,202,6.9,6.9,57,0.00,CLR,,0.00,WeatherDisplay:10.37,2013-07-13 20:37:00,
2013-07-13 14:42:00,57.9,42.8,29.53,SSW,202,6.9,6.9,57,0.00,CLR,,0.00,WeatherDisplay:10.37,2013-07-13 20:42:00,
2013-07-13 14:47:00,57.9,42.8,29.53,WSW,248,5.8,5.8,57,0.00,CLR,,0.00,WeatherDisplay:10.37,2013-07-13 20:47:00,
2013-07-13 14:52:00,57.9,42.8,29.53,WSW,248,5.8,5.8,57,0.00,CLR,,0.00,WeatherDisplay:10.37,2013-07-13 20:52:00,
2013-07-13 14:57:00,57.9,42.8,29.53,SSW,202,5.8,5.8,57,0.00,CLR,,0.00,WeatherDisplay:10.37,2013-07-13 20:57:00,
2013-07-13 15:02:00,57.9,42.8,29.53,SW,225,5.8,5.8,57,0.00,CLR,,0.00,WeatherDisplay:10.37,2013-07-13 21:02:00,
2013-07-13 15:07:00,57.9,42.8,29.53,WNW,292,4.6,4.6,57,0.00,CLR,,0.00,WeatherDisplay:10.37,2013-07-13 21:07:00,
2013-07-13 15:12:00,57.9,42.8,29.53,SSE,158,11.5,11.5,57,0.00,CLR,,0.00,WeatherDisplay:10.37,2013-07-13 21:12:00,
2013-07-13 15:17:00,57.9,42.8,29.53,NW,315,2.3,3.7,57,0.00,CLR,,0.00,WeatherDisplay:10.37,2013-07-13 21:17:00,
2013-07-13 15:22:00,57.9,42.8,29.53,NW,315,2.3,3.7,57,0.00,CLR,,0.00,WeatherDisplay:10.37,2013-07-13 21:22:00,
2013-07-13 15:27:00,57.9,42.8,29.53,SSW,202,0.0,2.1,57,0.00,CLR,,0.00,WeatherDisplay:10.37,2013-07-13 21:27:00,
2013-07-13 15:32:00,57.9,42.8,29.53,WSW,248,4.6,4.6,57,0.00,CLR,,0.00,WeatherDisplay:10.37,2013-07-13 21:32:00,
2013-07-13 15:37:00,57.9,42.8,29.52,WSW,248,3.5,3.5,57,0.00,CLR,,0.00,WeatherDisplay:10.37,2013-07-13 21:37:00,
2013-07-13 15:42:00,57.9,42.8,29.52,WSW,248,5.8,5.8,57,0.00,CLR,,0.00,WeatherDisplay:10.37,2013-07-13 21:42:00,
2013-07-13 15:47:00,57.9,42.8,29.52,WSW,248,3.8,3.8,57,0.00,CLR,,0.00,WeatherDisplay:10.37,2013-07-13 21:47:00,
2013-07-13 15:52:00,57.9,42.8,29.52,SSW,202,6.9,6.9,57,0.00,CLR,,0.00,WeatherDisplay:10.37,2013-07-13 21:52:00,
2013-07-13 15:57:00,57.9,42.8,29.53,WSW,248,1.3,2.9,57,0.00,CLR,,0.00,WeatherDisplay:10.37,2013-07-13 21:57:00,
2013-07-13 16:02:00,57.9,42.8,29.53,South,180,1.2,1.7,57,0.00,CLR,,0.00,WeatherDisplay:10.37,2013-07-13 22:02:00,
2013-07-13 16:07:00,57.9,42.8,29.53,SW,225,3.5,3.5,57,0.00,CLR,,0.00,WeatherDisplay:10.37,2013-07-13 22:07:00,
2013-07-13 16:12:00,57.9,42.8,29.53,South,180,0.0,1.2,57,0.00,CLR,,0.00,WeatherDisplay:10.37,2013-07-13 22:12:00,
2013-07-13 16:17:00,57.9,42.8,29.51,West,270,4.6,4.6,57,0.00,CLR,,0.00,WeatherDisplay:10.37,2013-07-13 22:17:00,
2013-07-13 16:22:00,57.9,42.8,29.51,ESE,112,5.8,5.8,57,0.00,CLR,,0.00,WeatherDisplay:10.37,2013-07-13 22:22:00,
2013-07-13 16:27:00,57.9,42.8,29.51,ESE,112,6.2,6.2,57,0.00,CLR,,0.00,WeatherDisplay:10.37,2013-07-13 22:27:00,
2013-07-13 16:32:00,57.9,42.8,29.51,WSW,248,6.9,6.9,57,0.00,CLR,,0.00,WeatherDisplay:10.37,2013-07-13 22:32:00,
2013-07-13 16:37:00,57.9,42.8,29.52,WSW,248,3.5,3.5,57,0.00,CLR,,0.00,WeatherDisplay:10.37,2013-07-13 22:37:00,
2013-07-13 16:42:00,57.9,42.8,29.52,SSW,202,5.8,5.8,57,0.00,CLR,,0.00,WeatherDisplay:10.37,2013-07-13 22:42:00,
2013-07-13 16:47:00,57.9,42.8,29.52,SSW,202,5.8,5.8,57,0.00,CLR,,0.00,WeatherDisplay:10.37,2013-07-13 22:47:00,
2013-07-13 16:52:00,57.9,42.8,29.52,South,180,8.1,8.1,57,0.00,CLR,,0.00,WeatherDisplay:10.37,2013-07-13 22:52:00,
2013-07-13 16:57:00,57.9,42.8,29.51,SSE,158,0.0,1.4,57,0.00,CLR,,0.00,WeatherDisplay:10.37,2013-07-13 22:57:00,
2013-07-13 17:02:00,57.9,42.8,29.51,West,270,4.9,4.9,57,0.00,CLR,,0.00,WeatherDisplay:10.37,2013-07-13 23:02:00,
2013-07-13 17:07:00,57.9,42.8,29.51,WSW,248,0.0,1.5,57,0.00,CLR,,0.00,WeatherDisplay:10.37,2013-07-13 23:07:00,
2013-07-13 17:12:00,57.9,42.8,29.51,West,270,0.0,0.6,57,0.00,CLR,,0.00,WeatherDisplay:10.37,2013-07-13 23:12:00,
2013-07-13 17:17:00,57.9,42.8,29.51,West,270,0.0,0.6,57,0.00,CLR,,0.00,WeatherDisplay:10.37,2013-07-13 23:17:00,
2013-07-13 17:22:00,57.9,42.8,29.51,South,180,3.8,3.8,57,0.00,CLR,,0.00,WeatherDisplay:10.37,2013-07-13 23:22:00,
2013-07-13 17:27:00,57.9,42.8,29.51,South,180,3.5,3.5,57,0.00,CLR,,0.00,WeatherDisplay:10.37,2013-07-13 23:27:00,
2013-07-13 17:32:00,57.9,42.8,29.51,South,180,8.1,8.1,57,0.00,CLR,,0.00,WeatherDisplay:10.37,2013-07-13 23:32:00,
2013-07-13 17:37:00,57.9,42.8,29.51,WSW,248,5.8,5.8,57,0.00,CLR,,0.00,WeatherDisplay:10.37,2013-07-13 23:37:00,
2013-07-13 17:42:00,57.9,42.8,29.51,WSW,248,4.6,4.6,57,0.00,CLR,,0.00,WeatherDisplay:10.37,2013-07-13 23:42:00,
2013-07-13 17:47:00,57.9,42.8,29.51,WSW,248,5.8,5.8,57,0.00,CLR,,0.00,WeatherDisplay:10.37,2013-07-13 23:47:00,
2013-07-13 17:52:00,57.9,42.8,29.51,WSW,248,0.0,2.4,57,0.00,CLR,,0.00,WeatherDisplay:10.37,2013-07-13 23:52:00,
2013-07-13 17:57:00,57.9,42.8,29.51,SW,225,0.0,0.1,57,0.00,CLR,,0.00,WeatherDisplay:10.37,2013-07-13 23:57:00,
2013-07-13 18:02:00,57.9,42.8,29.51,WSW,248,0.0,0.2,57,0.00,CLR,,0.00,WeatherDisplay:10.37,2013-07-14 00:02:00,
2013-07-13 18:07:00,57.9,42.8,29.51,West,270,0.0,0.2,57,0.00,CLR,,0.00,WeatherDisplay:10.37,2013-07-14 00:07:00,
2013-07-13 18:12:00,57.9,42.8,29.51,WNW,292,2.3,2.3,57,0.00,CLR,,0.00,WeatherDisplay:10.37,2013-07-14 00:12:00,
2013-07-13 18:17:00,57.9,42.8,29.51,WNW,292,0.0,0.9,57,0.00,CLR,,0.00,WeatherDisplay:10.37,2013-07-14 00:17:00,
2013-07-13 18:22:00,57.9,42.8,29.51,SW,225,2.3,2.3,57,0.00,CLR,,0.00,WeatherDisplay:10.37,2013-07-14 00:22:00,
2013-07-13 18:27:00,57.9,42.8,29.51,WSW,248,2.5,2.5,57,0.00,CLR,,0.00,WeatherDisplay:10.37,2013-07-14 00:27:00,
2013-07-13 18:32:00,57.9,42.8,29.51,NW,315,5.8,5.8,57,0.00,CLR,,0.00,WeatherDisplay:10.37,2013-07-14 00:32:00,
2013-07-13 18:37:00,57.9,42.8,29.51,SW,225,0.0,1.4,57,0.00,CLR,,0.00,WeatherDisplay:10.37,2013-07-14 00:37:00,
2013-07-13 18:42:00,57.9,42.8,29.51,WNW,292,4.6,4.6,57,0.00,CLR,,0.00,WeatherDisplay:10.37,2013-07-14 00:42:00,
2013-07-13 18:47:00,57.9,42.8,29.51,SSW,202,4.6,4.6,57,0.00,CLR,,0.00,WeatherDisplay:10.37,2013-07-14 00:47:00,
2013-07-13 18:52:00,57.9,42.8,29.51,SSE,158,0.0,2.2,57,0.00,CLR,,0.00,WeatherDisplay:10.37,2013-07-14 00:52:00,
2013-07-13 18:57:00,57.9,42.8,29.52,NW,315,0.0,0.9,57,0.00,CLR,,0.00,WeatherDisplay:10.37,2013-07-14 00:57:00,
2013-07-13 19:02:00,57.9,42.8,29.52,West,270,1.2,1.2,57,0.00,CLR,,0.00,WeatherDisplay:10.37,2013-07-14 01:02:00,
2013-07-13 19:07:00,57.9,42.8,29.52,NE,45,4.6,4.6,57,0.00,CLR,,0.00,WeatherDisplay:10.37,2013-07-14 01:07:00,
2013-07-13 19:12:00,57.9,42.8,29.52,NNE,22,2.6,2.6,57,0.00,CLR,,0.00,WeatherDisplay:10.37,2013-07-14 01:12:00,
2013-07-13 19:17:00,57.9,42.8,29.52,ENE,68,4.6,4.6,57,0.00,CLR,,0.00,WeatherDisplay:10.37,2013-07-14 01:17:00,
2013-07-13 19:22:00,57.9,42.8,29.52,SW,225,6.9,6.9,57,0.00,CLR,,0.00,WeatherDisplay:10.37,2013-07-14 01:22:00,
2013-07-13 19:27:00,57.9,42.8,29.52,SSW,202,0.0,1.3,57,0.00,CLR,,0.00,WeatherDisplay:10.37,2013-07-14 01:27:00,
2013-07-13 19:32:00,57.9,42.8,29.52,WSW,248,2.3,2.3,57,0.00,CLR,,0.00,WeatherDisplay:10.37,2013-07-14 01:32:00,
2013-07-13 19:37:00,57.9,42.8,29.49,SW,225,6.9,6.9,57,0.00,CLR,,0.00,WeatherDisplay:10.37,2013-07-14 01:37:00,
2013-07-13 19:42:00,57.9,42.8,29.49,SSE,158,8.1,8.1,57,0.00,CLR,,0.00,WeatherDisplay:10.37,2013-07-14 01:42:00,
2013-07-13 19:47:00,57.9,42.8,29.49,SSW,202,4.4,4.4,57,0.00,CLR,,0.00,WeatherDisplay:10.37,2013-07-14 01:47:00,
2013-07-13 19:52:00,57.9,42.8,29.49,ESE,112,4.7,4.7,57,0.00,CLR,,0.00,WeatherDisplay:10.37,2013-07-14 01:52:00,
2013-07-13 19:57:00,57.9,42.8,29.50,NW,315,2.3,2.3,57,0.00,CLR,,0.00,WeatherDisplay:10.37,2013-07-14 01:57:00,
2013-07-13 20:02:00,57.9,42.8,29.50,WSW,248,0.0,1.2,57,0.00,CLR,,0.00,WeatherDisplay:10.37,2013-07-14 02:02:00,
2013-07-13 20:07:00,57.9,42.8,29.50,SW,225,0.0,0.0,57,0.00,CLR,,0.00,WeatherDisplay:10.37,2013-07-14 02:07:00,
2013-07-13 20:12:00,57.9,42.8,29.50,SW,225,1.2,1.2,57,0.00,CLR,,0.00,WeatherDisplay:10.37,2013-07-14 02:12:00,
2013-07-13 20:17:00,57.9,42.8,29.49,SSW,202,0.0,0.5,57,0.00,CLR,,0.00,WeatherDisplay:10.37,2013-07-14 02:17:00,
2013-07-13 20:22:00,57.9,42.8,29.49,SSW,202,0.0,0.5,57,0.00,CLR,,0.00,WeatherDisplay:10.37,2013-07-14 02:22:00,
2013-07-13 20:27:00,57.9,42.8,29.49,WSW,248,0.0,0.2,57,0.00,CLR,,0.00,WeatherDisplay:10.37,2013-07-14 02:27:00,
2013-07-13 20:32:00,57.9,42.8,29.49,NW,315,0.0,0.0,57,0.00,CLR,,0.00,WeatherDisplay:10.37,2013-07-14 02:32:00,
2013-07-13 20:37:00,57.9,42.8,29.48,WNW,292,0.0,0.0,57,0.00,CLR,,0.00,WeatherDisplay:10.37,2013-07-14 02:37:00,
2013-07-13 20:42:00,57.9,42.8,29.48,SW,225,0.0,0.0,57,0.00,CLR,,0.00,WeatherDisplay:10.37,2013-07-14 02:42:00,
2013-07-13 20:47:00,57.9,42.8,29.48,WSW,248,0.0,0.0,57,0.00,CLR,,0.00,WeatherDisplay:10.37,2013-07-14 02:47:00,
2013-07-13 20:52:00,57.9,42.8,29.48,NW,315,0.0,0.0,57,0.00,CLR,,0.00,WeatherDisplay:10.37,2013-07-14 02:52:00,
2013-07-13 20:57:00,57.9,42.8,29.50,West,270,0.0,0.0,57,0.00,CLR,,0.00,WeatherDisplay:10.37,2013-07-14 02:57:00,
2013-07-13 21:02:00,57.9,42.8,29.50,ENE,68,0.0,0.0,57,0.00,CLR,,0.00,WeatherDisplay:10.37,2013-07-14 03:02:00,
2013-07-13 21:07:00,57.9,42.8,29.50,SSW,202,0.0,0.0,57,0.00,CLR,,0.00,WeatherDisplay:10.37,2013-07-14 03:07:00,
2013-07-13 21:12:00,57.9,42.8,29.50,SSW,202,0.0,0.0,57,0.00,CLR,,0.00,WeatherDisplay:10.37,2013-07-14 03:12:00,
2013-07-13 21:17:00,57.9,42.8,29.50,SE,135,0.0,0.0,57,0.00,CLR,,0.00,WeatherDisplay:10.37,2013-07-14 03:17:00,
2013-07-13 21:22:00,57.9,42.8,29.50,SSW,202,1.6,1.6,57,0.00,CLR,,0.00,WeatherDisplay:10.37,2013-07-14 03:22:00,
2013-07-13 21:27:00,57.9,42.8,29.50,North,0,0.0,0.2,57,0.00,CLR,,0.00,WeatherDisplay:10.37,2013-07-14 03:27:00,
2013-07-13 21:32:00,57.9,42.8,29.50,SSW,202,0.0,0.2,57,0.00,CLR,,0.00,WeatherDisplay:10.37,2013-07-14 03:32:00,
2013-07-13 21:37:00,57.9,42.8,29.51,SSW,202,0.0,0.0,57,0.00,CLR,,0.00,WeatherDisplay:10.37,2013-07-14 03:37:00,
2013-07-13 21:42:00,57.9,42.8,29.51,ENE,68,0.0,0.0,57,0.00,CLR,,0.00,WeatherDisplay:10.37,2013-07-14 03:42:00,
2013-07-13 21:47:00,57.9,42.8,29.51,West,270,0.0,0.3,57,0.00,CLR,,0.00,WeatherDisplay:10.37,2013-07-14 03:47:00,
2013-07-13 21:52:00,57.9,42.8,29.51,South,180,1.6,1.6,57,0.00,CLR,,0.00,WeatherDisplay:10.37,2013-07-14 03:52:00,
2013-07-13 21:57:00,57.9,42.8,29.53,SSW,202,0.0,0.1,57,0.00,CLR,,0.00,WeatherDisplay:10.37,2013-07-14 03:57:00,
2013-07-13 22:01:00,57.9,42.8,29.53,West,270,0.0,0.0,57,0.00,CLR,,0.00,WeatherDisplay:10.37,2013-07-14 04:01:00,
2013-07-13 22:02:00,57.9,42.8,29.53,West,270,0.0,0.0,57,0.00,CLR,,0.00,WeatherDisplay:10.37,2013-07-14 04:02:00,
2013-07-13 22:03:00,57.9,42.8,29.53,WSW,248,0.0,0.0,57,0.00,CLR,,0.00,WeatherDisplay:10.37,2013-07-14 04:03:00,
2013-07-13 22:08:00,57.9,42.8,29.53,SSW,202,1.6,1.6,57,0.00,CLR,,0.00,WeatherDisplay:10.37,2013-07-14 04:08:00,
2013-07-13 22:13:00,57.9,42.8,29.53,West,270,0.0,0.2,57,0.00,CLR,,0.00,WeatherDisplay:10.37,2013-07-14 04:13:00,
2013-07-13 22:18:00,57.9,42.8,29.54,WNW,292,3.5,3.5,57,0.00,CLR,,0.00,WeatherDisplay:10.37,2013-07-14 04:18:00,
2013-07-13 22:23:00,57.9,42.8,29.54,SW,225,0.0,0.6,57,0.00,CLR,,0.00,WeatherDisplay:10.37,2013-07-14 04:23:00,
2013-07-13 22:28:00,57.9,42.8,29.54,SW,225,1.2,1.2,57,0.00,CLR,,0.00,WeatherDisplay:10.37,2013-07-14 04:28:00,
2013-07-13 22:33:00,57.9,42.8,29.54,SSW,202,0.0,0.0,57,0.00,CLR,,0.00,WeatherDisplay:10.37,2013-07-14 04:33:00,
2013-07-13 22:38:00,57.9,42.8,29.55,West,270,2.3,2.3,57,0.00,CLR,,0.00,WeatherDisplay:10.37,2013-07-14 04:38:00,
2013-07-13 22:43:00,57.9,42.8,29.55,SW,225,0.0,0.7,57,0.00,CLR,,0.00,WeatherDisplay:10.37,2013-07-14 04:43:00,
2013-07-13 22:48:00,57.9,42.8,29.55,SSW,202,0.0,0.7,57,0.00,CLR,,0.00,WeatherDisplay:10.37,2013-07-14 04:48:00,
2013-07-13 22:53:00,57.9,42.8,29.55,NW,315,0.0,0.1,57,0.00,CLR,,0.00,WeatherDisplay:10.37,2013-07-14 04:53:00,
2013-07-13 22:58:00,57.9,42.8,29.55,ENE,68,0.0,0.0,57,0.00,CLR,,0.00,WeatherDisplay:10.37,2013-07-14 04:58:00,
2013-07-13 23:03:00,57.9,42.8,29.55,NNE,22,0.0,0.0,57,0.00,CLR,,0.00,WeatherDisplay:10.37,2013-07-14 05:03:00,
2013-07-13 23:08:00,57.9,42.8,29.55,NE,45,0.0,0.0,57,0.00,CLR,,0.00,WeatherDisplay:10.37,2013-07-14 05:08:00,
2013-07-13 23:13:00,57.9,42.8,29.55,SSW,202,0.0,0.0,57,0.00,CLR,,0.00,WeatherDisplay:10.37,2013-07-14 05:13:00,
2013-07-13 23:18:00,57.9,42.8,29.56,East,90,0.0,0.0,57,0.00,CLR,,0.00,WeatherDisplay:10.37,2013-07-14 05:18:00,
2013-07-13 23:23:00,57.9,42.8,29.56,NNE,22,0.0,0.0,57,0.00,CLR,,0.00,WeatherDisplay:10.37,2013-07-14 05:23:00,
2013-07-13 23:28:00,57.9,42.8,29.56,NE,45,0.0,0.0,57,0.00,CLR,,0.00,WeatherDisplay:10.37,2013-07-14 05:28:00,
2013-07-13 23:33:00,57.9,42.8,29.56,ENE,68,0.0,0.0,57,0.00,CLR,,0.00,WeatherDisplay:10.37,2013-07-14 05:33:00,
2013-07-13 23:38:00,57.9,42.8,29.57,NE,45,0.0,0.0,57,0.00,CLR,,0.00,WeatherDisplay:10.37,2013-07-14 05:38:00,
2013-07-13 23:43:00,57.9,42.8,29.57,ESE,112,0.0,0.0,57,0.00,CLR,,0.00,WeatherDisplay:10.37,2013-07-14 05:43:00,
2013-07-13 23:48:00,57.9,42.8,29.57,East,90,0.0,0.0,57,0.00,CLR,,0.00,WeatherDisplay:10.37,2013-07-14 05:48:00,
2013-07-13 23:53:00,57.9,42.8,29.57,NNE,22,0.0,0.0,57,0.00,CLR,,0.00,WeatherDisplay:10.37,2013-07-14 05:53:00,
2013-07-13 23:58:00,57.9,42.8,29.58,ENE,68,0.0,0.0,57,0.00,CLR,,0.00,WeatherDisplay:10.37,2013-07-14 05:58:00,